Date,TemperatureHighF,TemperatureAvgF,TemperatureLowF,DewpointHighF,DewpointAvgF,DewpointLowF,HumidityHigh,HumidityAvg,HumidityLow,PressureMaxIn,PressureMinIn,WindSpeedMaxMPH,WindSpeedAvgMPH,GustSpeedMaxMPH,PrecipitationSumIn
2013-1-1,35.5,28.0,18.0,33.4,25.1,14.4,93,89,84,30.12,29.92,8,2,8,0.01
2013-1-2,35.1,25.6,15.1,25.7,17.9,11.8,89,74,51,30.13,30.03,5,1,5,0.00
2013-1-3,41.4,29.6,20.5,28.8,22.2,16.7,89,75,52,30.27,30.10,6,1,6,0.00
2013-1-4,45.4,33.1,21.8,27.1,23.0,17.9,86,68,43,30.32,30.17,7,1,7,0.00
2013-1-5,41.8,35.1,26.8,33.0,28.1,19.7,85,76,66,30.19,30.03,7,1,7,0.00
2013-1-6,41.0,32.0,22.5,29.3,23.7,16.2,86,72,49,30.23,30.07,12,2,12,0.00
2013-1-7,50.9,35.6,22.0,29.9,24.6,15.9,84,65,41,30.22,30.00,5,1,7,0.00
2013-1-8,54.9,42.7,28.8,46.0,32.5,22.9,93,69,46,30.09,29.93,6,1,6,0.27
2013-1-9,56.3,49.1,42.8,44.7,40.7,34.2,92,74,52,30.26,30.09,8,1,8,0.01
2013-1-10,52.4,47.8,42.3,50.4,44.9,34.8,95,90,57,30.17,29.71,11,3,11,0.36
2013-1-11,65.5,54.9,44.8,49.2,45.7,42.2,93,73,48,29.76,29.62,11,3,11,0.00
2013-1-12,54.7,41.7,27.5,47.0,34.9,24.8,91,78,53,29.87,29.70,14,4,14,0.21
2013-1-13,27.5,22.1,15.3,24.6,18.1,11.3,90,84,78,30.21,29.82,10,2,10,0.00
2013-1-14,30.4,20.7,13.9,18.9,13.6,9.9,85,74,58,30.33,30.19,9,1,9,0.01
2013-1-15,33.8,23.6,16.6,21.6,15.7,11.8,84,73,44,30.21,30.03,5,1,5,0.00
2013-1-16,41.0,23.1,14.6,24.8,16.1,10.6,87,76,48,30.04,29.95,5,0,5,0.03
2013-1-17,44.8,36.7,24.8,32.3,26.0,18.4,88,66,50,30.35,30.03,11,3,11,0.00
2013-1-18,58.0,40.2,24.3,33.3,26.2,19.9,87,61,30,30.37,30.06,10,2,10,0.00
2013-1-19,62.8,47.4,38.3,38.2,32.3,26.4,71,57,39,30.10,29.93,12,2,12,0.00
2013-1-20,53.3,40.3,27.5,34.3,23.1,15.8,81,53,29,30.17,30.05,8,2,8,0.00
2013-1-21,33.8,25.9,19.3,16.8,13.7,9.9,74,60,46,30.26,30.16,9,2,9,0.00
2013-1-22,35.6,26.9,20.3,19.4,15.2,10.9,74,61,50,30.24,30.11,5,1,5,0.00
2013-1-23,57.6,37.6,21.8,41.8,27.7,15.2,82,68,54,30.18,30.02,6,1,6,0.00
2013-1-24,35.3,30.4,24.7,24.3,15.8,9.6,66,55,45,30.28,30.02,10,3,10,0.00
2013-1-25,49.0,35.9,27.5,29.5,25.4,17.6,86,67,45,30.14,29.99,9,1,9,0.00
2013-1-26,59.4,44.0,29.9,32.3,25.8,22.5,78,52,28,30.17,30.04,6,1,6,0.00
2013-1-27,54.4,47.9,40.9,51.2,42.0,26.7,91,80,47,30.05,29.80,9,3,9,0.01
2013-1-28,74.0,63.5,53.8,61.5,57.7,51.2,92,82,60,29.86,29.74,13,3,13,0.00
2013-1-29,68.4,57.1,47.2,60.8,53.9,44.9,94,89,75,29.75,29.36,10,2,10,2.15
2013-1-30,47.7,32.9,26.5,46.1,28.3,18.9,94,83,73,29.91,29.35,14,5,14,0.00
2013-1-31,40.9,25.5,13.0,29.7,18.1,3.3,87,74,59,30.30,29.86,12,2,12,0.00
2013-2-1,35.5,22.5,9.0,16.9,9.7,2.1,74,59,41,30.32,30.05,5,1,5,0.00
2013-2-2,50.6,37.9,25.9,35.4,27.0,15.8,79,65,54,30.09,30.01,11,2,11,0.01
2013-2-3,50.9,42.4,33.5,31.2,26.7,21.9,79,56,34,30.15,29.86,10,2,10,0.00
2013-2-4,60.3,47.6,33.5,43.3,33.7,25.2,75,59,44,29.86,29.72,11,2,11,0.02
2013-2-5,62.5,44.0,28.1,42.9,30.9,24.0,90,63,35,29.97,29.82,12,1,12,0.00
2013-2-6,59.4,45.7,30.8,39.6,33.4,24.4,83,63,43,30.04,29.88,8,2,8,0.00
2013-2-7,52.9,47.4,40.7,49.0,42.6,37.4,92,84,71,29.98,29.78,11,2,11,0.23
2013-2-8,48.2,38.1,31.7,38.0,31.0,27.6,90,76,57,30.20,29.98,12,3,12,0.00
2013-2-9,43.0,36.1,31.9,35.2,30.9,28.1,92,82,64,30.13,29.77,8,2,8,0.10
2013-2-10,60.7,45.7,37.6,52.2,37.6,26.0,95,77,34,29.90,29.54,16,4,16,0.16
2013-2-11,51.1,39.4,30.1,30.0,26.2,21.8,78,60,39,30.06,29.90,8,2,8,0.00
2013-2-12,46.4,35.1,25.9,33.1,27.3,20.3,88,74,53,30.04,29.81,8,1,8,0.00
2013-2-13,49.1,37.5,32.0,36.7,31.8,28.6,93,81,58,29.87,29.79,8,2,8,0.21
2013-2-14,54.9,44.6,34.0,35.6,30.5,24.3,74,58,44,30.03,29.80,8,2,8,0.00
2013-2-15,42.3,34.6,24.5,31.4,19.8,11.3,81,56,35,30.18,30.02,11,3,11,0.00
2013-2-16,37.6,30.8,23.4,22.9,19.2,11.6,82,63,44,30.19,30.01,7,1,7,0.01
2013-2-17,63.7,47.0,29.9,33.1,26.9,19.4,67,47,31,30.01,29.73,6,2,6,0.00
2013-2-18,58.0,47.5,31.3,50.4,38.3,23.2,86,71,57,29.97,29.48,15,4,15,0.03
2013-2-19,41.9,32.1,24.8,23.9,17.0,11.5,75,55,33,30.17,29.97,14,2,14,0.00
2013-2-20,35.5,29.6,24.8,16.1,11.7,8.4,56,47,38,30.19,30.00,7,1,7,0.00
2013-2-21,32.4,29.9,27.4,30.3,25.3,15.0,92,83,51,30.01,29.61,13,3,13,0.00
2013-2-22,33.5,27.4,22.0,31.3,21.8,17.3,93,80,64,29.97,29.71,11,2,11,0.09
2013-2-23,41.2,28.2,18.2,24.9,19.4,14.0,87,71,49,29.98,29.85,5,0,5,0.19
2013-2-24,54.7,39.8,23.9,35.3,28.0,17.9,83,65,46,29.92,29.78,8,2,8,0.00
2013-2-25,45.5,38.4,34.2,33.3,29.6,26.6,90,72,48,29.82,29.32,12,3,12,0.40
2013-2-26,34.9,32.5,31.9,32.0,30.4,29.5,93,92,88,29.72,29.25,9,2,9,0.12
2013-2-27,33.7,32.0,30.6,29.5,28.0,26.0,91,85,78,29.91,29.68,9,3,9,0.04
2013-2-28,32.4,30.6,28.4,27.1,25.6,24.1,86,81,77,30.05,29.89,10,3,10,0.00
2013-3-1,29.7,28.5,27.0,25.7,24.3,22.8,87,84,78,30.11,30.01,7,2,7,0.00
2013-3-2,34.2,27.0,21.2,23.9,20.0,15.9,87,75,60,30.19,30.07,10,3,10,0.04
2013-3-3,55.3,38.6,20.5,31.1,25.0,15.8,85,61,37,30.08,29.73,8,2,8,0.02
2013-3-4,65.3,49.4,37.6,45.8,36.9,27.9,86,63,45,29.73,29.53,8,2,8,0.00
2013-3-5,42.1,36.3,29.2,34.4,26.0,20.3,90,67,49,30.16,29.72,16,6,16,0.04
2013-3-6,45.9,34.3,25.6,26.3,21.7,17.1,72,60,44,30.27,30.14,11,3,11,0.00
2013-3-7,61.6,45.9,31.3,32.4,28.1,23.4,74,53,28,30.17,30.04,7,2,7,0.00
2013-3-8,60.1,47.7,35.8,39.2,34.2,30.4,81,61,43,30.17,29.96,8,2,8,0.00
2013-3-9,73.1,56.8,44.3,55.1,45.5,37.7,93,69,37,29.96,29.63,12,3,12,0.88
2013-3-10,57.6,47.2,31.3,54.7,44.4,28.5,94,90,73,29.78,29.55,11,3,11,1.04
2013-3-11,43.0,32.6,27.5,30.3,25.7,22.3,91,77,51,29.91,29.74,10,3,10,0.00
2013-3-12,53.1,39.6,27.4,31.1,25.7,21.3,81,60,37,30.19,29.90,11,2,11,0.00
2013-3-13,49.7,36.6,26.8,26.8,23.4,19.8,77,60,39,30.33,30.18,8,2,8,0.00
2013-3-14,72.7,51.0,30.4,43.4,32.8,22.2,76,52,33,30.24,29.98,14,3,14,0.00
2013-3-15,81.5,64.4,46.1,51.0,44.9,36.3,75,52,29,30.00,29.67,14,3,14,0.00
2013-3-16,66.2,57.3,43.6,48.9,43.1,36.2,76,60,45,29.83,29.65,12,4,12,0.00
2013-3-17,43.2,39.7,37.3,39.3,37.1,34.3,94,91,78,29.88,29.60,9,2,9,1.32
2013-3-18,54.4,43.1,37.1,40.9,36.1,27.6,94,78,46,29.93,29.59,9,2,9,0.01
2013-3-19,49.1,39.0,27.2,34.7,24.7,13.2,84,59,32,30.13,29.92,9,1,9,0.00
2013-3-20,43.9,35.2,27.7,30.3,19.6,11.4,89,57,29,30.22,30.01,13,3,13,0.00
2013-3-21,38.5,30.7,25.4,28.5,20.8,12.7,91,69,39,30.01,29.78,7,2,7,0.00
2013-3-22,39.4,34.3,30.1,34.2,31.1,27.5,92,88,81,29.86,29.76,5,1,5,0.31
2013-3-23,41.2,37.7,34.4,39.1,35.1,32.0,94,90,81,29.85,29.62,6,1,6,0.15
2013-3-24,40.9,33.5,27.7,39.2,30.8,21.4,94,90,78,29.95,29.49,10,3,10,0.35
2013-3-25,33.5,27.5,22.5,26.2,21.9,17.7,85,79,71,30.17,29.91,11,4,11,0.01
2013-3-26,45.7,31.7,22.3,28.9,24.0,19.5,90,74,49,30.27,30.17,7,2,7,0.00
2013-3-27,54.4,39.4,24.3,31.7,26.1,19.4,86,62,39,30.22,30.06,8,2,8,0.00
2013-3-28,70.9,56.3,42.8,48.3,39.8,31.5,69,55,39,30.12,30.01,8,1,8,0.00
2013-3-29,69.8,57.5,50.4,55.5,48.5,40.3,93,73,50,30.09,30.01,7,1,7,0.16
2013-3-30,69.7,55.3,49.5,57.6,49.6,45.9,92,82,62,30.04,29.73,8,2,8,0.25
2013-3-31,67.3,55.8,45.5,51.9,44.2,38.4,94,68,39,29.88,29.75,10,2,10,0.35
2013-4-1,55.8,46.2,40.0,40.1,34.6,27.2,86,65,52,30.10,29.85,11,3,11,0.00
2013-4-2,41.4,38.0,34.2,33.3,29.7,27.1,83,72,61,30.18,30.07,12,1,12,0.16
2013-4-3,56.0,44.0,31.0,30.0,25.2,22.1,77,50,29,30.18,30.05,9,1,9,0.00
2013-4-4,57.1,47.9,38.7,33.3,30.0,25.1,71,51,36,30.06,29.94,8,1,8,0.00
2013-4-5,74.2,53.9,31.7,42.6,35.0,24.7,83,52,29,30.08,29.88,6,1,6,0.00
2013-4-6,76.0,62.1,50.8,49.2,42.9,35.5,62,50,37,29.88,29.68,14,3,14,0.00
2013-4-7,80.1,66.6,53.6,59.9,52.8,45.1,85,63,40,29.82,29.64,11,2,11,0.00
2013-4-8,75.8,66.7,58.7,61.1,57.3,53.4,83,72,58,29.71,29.62,10,3,10,0.00
2013-4-9,80.3,68.8,60.8,64.5,59.0,55.1,83,72,57,29.73,29.64,8,2,8,0.00
2013-4-10,69.5,53.9,38.5,63.9,50.2,36.4,93,88,70,29.76,29.56,9,2,9,1.03
2013-4-11,50.6,39.8,33.8,36.6,32.8,29.4,93,77,53,29.73,29.63,11,3,11,0.00
2013-4-12,57.1,44.0,33.5,37.5,32.3,27.9,84,65,47,29.92,29.68,12,2,12,0.00
2013-4-13,72.2,54.5,36.0,47.9,39.7,31.0,86,60,39,29.96,29.71,8,2,8,0.00
2013-4-14,82.8,67.0,52.0,57.8,47.9,40.1,89,55,24,29.73,29.44,13,3,13,0.07
2013-4-15,84.1,63.5,51.8,65.3,55.8,46.3,91,77,52,29.79,29.60,13,2,13,0.02
2013-4-16,63.7,53.1,48.4,55.3,48.6,45.8,92,85,71,29.93,29.78,12,3,12,0.00
2013-4-17,85.7,69.9,49.7,70.3,60.7,46.5,96,74,55,29.90,29.56,10,3,10,0.00
2013-4-18,73.6,51.4,38.0,65.3,46.4,29.4,94,83,71,29.83,29.48,12,3,12,1.46
2013-4-19,54.4,42.8,33.5,31.1,28.2,24.3,73,58,38,29.98,29.81,13,4,13,0.00
2013-4-20,67.3,51.3,32.8,40.0,34.6,27.5,85,56,33,30.11,29.97,5,1,5,0.00
2013-4-21,70.0,58.6,47.7,45.0,41.1,37.6,78,54,35,30.18,30.03,12,2,12,0.00
2013-4-22,73.3,59.1,44.6,45.7,41.2,37.5,77,54,32,30.10,29.81,8,1,8,0.00
2013-4-23,60.1,47.8,36.2,51.3,42.7,34.0,92,84,59,29.98,29.75,11,3,11,0.39
2013-4-24,56.0,42.5,34.2,35.6,32.2,27.4,92,70,39,30.18,29.97,11,3,11,0.02
2013-4-25,71.1,52.9,32.0,41.0,34.2,26.6,83,53,26,30.24,30.11,8,1,8,0.00
2013-4-26,58.3,49.5,46.1,46.4,43.4,37.9,94,81,48,30.23,30.05,7,2,7,1.42
2013-4-27,55.3,50.5,46.4,52.4,48.4,44.8,94,93,88,30.06,29.88,5,1,5,0.25
2013-4-28,76.7,58.0,49.0,55.2,49.4,45.7,93,75,44,29.93,29.78,6,1,6,0.00
2013-4-29,88.2,69.2,50.0,65.3,55.0,47.1,92,64,33,29.82,29.67,10,2,10,0.00
2013-4-30,86.8,72.3,57.8,61.2,53.8,48.1,86,56,30,29.80,29.70,11,2,11,0.00
2013-5-1,85.7,70.7,58.0,65.1,58.1,47.5,85,65,46,29.98,29.80,6,1,6,0.00
2013-5-2,63.4,48.9,34.9,59.0,44.4,32.5,92,85,78,30.11,29.96,11,3,11,0.23
2013-5-3,36.5,33.8,32.6,34.4,31.7,30.5,93,92,91,30.09,29.79,10,2,11,0.60
2013-5-4,46.3,38.8,32.9,38.4,34.6,30.9,93,85,70,29.89,29.72,6,1,6,0.32
2013-5-5,61.2,49.3,40.3,50.5,43.5,36.6,90,81,68,29.96,29.88,11,2,11,0.01
2013-5-6,70.2,56.9,50.2,56.3,51.1,47.6,93,82,60,29.96,29.87,10,2,10,0.00
2013-5-7,80.1,63.8,48.2,58.5,51.4,45.4,92,67,41,29.98,29.89,8,1,8,0.00
2013-5-8,78.1,63.5,52.6,63.0,55.1,47.7,86,74,58,29.99,29.82,5,0,5,0.02
2013-5-9,77.8,65.4,57.2,62.8,58.0,54.0,93,78,58,29.89,29.79,10,2,10,0.85
2013-5-10,66.8,60.5,51.7,59.5,55.5,47.5,94,84,69,29.96,29.80,7,2,7,0.00
2013-5-11,72.4,59.0,46.6,56.3,45.3,35.5,92,64,31,30.09,29.94,11,2,11,0.00
2013-5-12,69.1,54.7,39.2,41.4,36.0,28.9,79,52,28,30.17,30.04,8,1,8,0.00
2013-5-13,81.7,64.3,46.6,56.5,48.3,39.1,80,58,38,30.09,29.93,8,1,8,0.00
2013-5-14,89.6,74.1,59.9,58.9,53.4,50.0,74,51,29,29.94,29.85,12,2,12,0.00
2013-5-15,83.5,69.2,59.9,68.3,59.1,50.0,90,71,57,29.90,29.80,10,1,10,0.33
2013-5-16,66.2,63.2,61.2,63.8,60.4,58.7,93,90,85,29.83,29.76,4,1,4,0.10
2013-5-17,80.8,68.7,61.4,66.5,61.9,59.0,93,80,57,29.86,29.78,5,1,5,0.00
2013-5-18,85.5,73.6,63.4,75.1,67.6,59.7,92,82,69,29.86,29.73,5,1,5,0.00
2013-5-19,88.9,77.4,68.8,73.6,68.6,65.5,93,76,48,29.78,29.58,8,2,8,0.06
2013-5-20,78.5,68.2,62.3,70.3,63.6,58.1,92,85,71,29.77,29.61,13,1,13,0.88
2013-5-21,69.5,63.4,60.1,63.4,59.6,56.3,94,88,75,29.78,29.51,9,2,9,0.02
2013-5-22,72.7,64.4,55.1,59.9,56.2,52.2,92,76,59,29.85,29.67,10,2,10,0.00
2013-5-23,73.8,64.3,54.4,59.8,55.3,50.9,90,74,57,30.09,29.85,10,2,10,0.00
2013-5-24,76.3,64.4,52.4,56.0,51.5,47.7,87,65,43,30.22,30.08,7,1,7,0.00
2013-5-25,82.3,68.3,54.9,67.2,57.2,46.0,80,68,58,30.15,29.97,6,1,6,0.00
2013-5-26,85.7,74.3,61.9,71.0,64.4,57.7,87,72,54,30.04,29.89,7,1,7,0.00
2013-5-27,85.0,75.1,65.5,72.1,66.4,61.2,88,75,62,29.91,29.70,10,2,10,0.00
2013-5-28,84.6,74.8,70.0,71.6,66.5,62.9,84,76,60,29.80,29.67,10,1,10,0.00
2013-5-29,83.3,75.0,67.3,70.1,66.0,62.2,87,74,61,29.82,29.68,7,2,7,0.00
2013-5-30,83.3,70.9,62.3,70.7,64.2,59.7,94,80,59,29.80,29.65,10,2,10,2.50
2013-5-31,83.3,72.6,64.6,75.5,68.5,61.8,94,87,75,29.76,29.60,11,2,11,0.49
2013-6-1,76.3,67.5,61.7,66.9,62.9,57.3,96,86,66,29.88,29.62,8,2,8,1.22
2013-6-2,63.7,60.2,55.8,58.4,56.0,53.0,92,86,79,29.97,29.87,6,1,6,0.00
2013-6-3,77.4,63.8,48.6,64.0,56.2,46.2,94,78,58,29.97,29.83,5,1,5,0.00
2013-6-4,74.5,69.8,59.8,67.3,63.6,55.9,88,81,74,29.93,29.83,6,1,6,0.01
2013-6-5,74.3,68.8,61.2,69.2,64.8,58.5,92,87,81,29.92,29.76,6,1,6,0.08
2013-6-6,72.0,64.3,58.0,65.4,60.3,55.6,95,87,73,29.85,29.79,5,1,5,0.01
2013-6-7,74.2,66.6,54.5,62.4,57.1,51.8,92,73,54,29.89,29.81,6,1,6,0.01
2013-6-8,80.6,67.8,52.6,64.9,57.5,49.2,90,71,50,29.87,29.76,6,1,6,0.00
2013-6-9,79.0,67.3,60.7,65.5,60.3,57.8,92,79,56,29.85,29.74,7,1,7,0.42
2013-6-10,88.4,75.6,61.9,75.7,66.7,57.3,86,75,59,29.83,29.73,5,1,5,0.00
2013-6-11,93.6,81.1,68.6,74.1,69.0,64.7,88,69,41,29.91,29.82,8,2,8,0.00
2013-6-12,91.4,81.6,70.9,75.0,70.3,66.2,88,70,52,29.88,29.78,13,3,13,0.00
2013-6-13,85.0,77.9,69.8,70.7,67.0,60.3,82,69,59,29.94,29.82,8,2,8,0.00
2013-6-14,89.5,77.4,65.3,75.1,67.8,61.0,87,73,61,29.96,29.86,4,1,6,0.00
2013-6-15,74.9,70.5,66.4,69.4,65.9,63.4,94,86,75,30.00,29.84,8,1,8,2.68
2013-6-16,87.5,75.1,66.6,77.0,70.4,63.6,94,86,70,29.91,29.82,9,1,9,0.52
2013-6-17,73.4,68.8,64.3,71.0,66.8,62.6,96,93,88,29.92,29.77,4,1,4,0.24
2013-6-18,84.6,71.7,60.5,72.7,65.5,59.0,96,82,60,29.94,29.85,8,1,8,0.02
2013-6-19,87.5,75.3,62.6,73.3,66.6,60.0,92,76,55,29.97,29.89,5,1,5,0.00
2013-6-20,89.3,78.3,66.6,74.9,68.9,62.7,88,74,57,30.00,29.91,6,1,6,0.00
2013-6-21,92.3,81.5,71.3,78.1,72.3,66.5,87,74,59,30.00,29.91,9,1,9,0.00
2013-6-22,90.5,81.1,72.4,77.7,72.6,68.5,89,76,58,30.00,29.87,6,1,6,0.00
2013-6-23,91.1,80.8,70.9,76.7,71.4,66.5,88,74,56,29.93,29.83,8,1,8,0.00
2013-6-24,91.1,81.4,71.8,75.6,71.0,66.7,86,72,55,29.98,29.86,8,2,8,0.00
2013-6-25,90.7,81.0,72.5,75.4,70.1,66.8,85,70,53,29.89,29.75,8,2,8,0.00
2013-6-26,93.4,83.3,73.6,77.8,72.8,67.5,85,71,57,29.83,29.74,7,2,7,0.00
2013-6-27,94.3,85.1,74.7,80.5,76.4,70.7,89,76,60,29.89,29.77,6,1,6,0.00
2013-6-28,87.3,78.0,69.8,76.6,68.9,61.6,93,75,55,29.85,29.75,10,2,10,0.71
2013-6-29,83.7,74.7,64.8,66.0,60.3,56.8,81,63,42,29.77,29.69,10,2,10,0.00
2013-6-30,76.9,67.2,62.8,63.7,59.9,58.1,88,78,60,29.88,29.74,5,2,5,0.00
2013-7-1,79.7,70.3,61.6,62.2,58.7,53.5,87,68,49,29.94,29.86,8,1,8,0.00
2013-7-2,79.6,70.5,57.2,61.2,55.6,51.5,83,61,44,29.99,29.92,8,1,8,0.00
2013-7-3,83.0,69.5,57.6,64.7,57.5,52.4,84,67,45,30.02,29.91,5,1,7,0.27
2013-7-4,84.4,71.0,58.5,67.0,60.2,55.0,89,71,44,29.98,29.90,5,1,5,0.01
2013-7-5,87.7,68.2,61.0,69.2,59.1,55.7,83,74,43,29.96,29.86,5,0,5,0.00
2013-7-6,90.0,77.5,65.5,71.6,64.3,60.2,84,65,43,29.95,29.85,4,1,5,0.00
2013-7-7,92.2,80.4,68.4,72.8,66.2,61.9,82,64,41,29.97,29.89,7,1,7,0.00
2013-7-8,92.0,81.2,70.4,75.1,68.7,62.7,81,67,51,30.02,29.93,5,1,5,0.00
2013-7-9,94.7,83.5,72.5,75.0,70.5,66.1,83,66,49,30.00,29.87,7,1,7,0.00
2013-7-10,92.0,80.7,70.2,78.1,72.5,66.3,92,77,57,29.96,29.84,6,1,6,0.59
2013-7-11,89.5,80.9,72.7,73.8,68.6,62.6,89,68,45,29.95,29.87,6,1,6,0.00
2013-7-12,88.6,77.1,66.1,67.6,61.4,55.5,78,60,41,29.99,29.90,6,2,6,0.00
2013-7-13,84.2,74.8,62.8,65.6,60.2,53.8,76,61,47,29.99,29.86,5,1,5,0.00
2013-7-14,88.4,76.5,63.7,67.1,61.4,57.1,81,61,41,30.00,29.91,7,2,7,0.00
2013-7-15,89.6,77.9,69.3,73.4,67.6,60.5,89,72,52,30.09,30.00,7,2,7,0.25
2013-7-16,89.3,76.5,69.5,78.3,71.4,66.7,94,85,58,30.19,30.08,8,1,8,0.08
2013-7-17,93.8,81.2,70.0,76.6,71.6,67.0,92,74,51,30.24,30.10,5,1,5,0.01
2013-7-18,95.2,83.3,71.6,74.9,70.1,65.5,83,66,47,30.13,29.94,4,1,4,0.00
2013-7-19,94.1,81.1,71.3,75.2,69.8,65.3,84,70,48,29.96,29.84,6,1,6,0.00
2013-7-20,91.3,77.2,70.4,75.2,69.3,65.8,88,77,57,29.90,29.77,6,1,6,0.21
2013-7-21,81.2,74.2,69.7,74.4,70.4,66.8,92,88,78,29.87,29.76,6,0,6,0.20
2013-7-22,86.6,76.9,66.2,73.3,69.5,63.2,92,79,58,29.86,29.75,8,1,8,0.14
2013-7-23,93.6,81.8,72.0,78.9,72.5,65.3,87,74,59,29.81,29.71,10,2,10,0.00
2013-7-24,85.9,77.2,71.3,72.6,68.2,62.2,88,74,55,29.94,29.79,7,1,7,0.00
2013-7-25,86.9,75.1,63.2,68.5,63.5,57.9,85,68,52,30.02,29.93,7,1,7,0.00
2013-7-26,72.7,69.1,65.5,67.4,64.9,62.6,94,87,72,29.97,29.91,4,0,4,1.42
2013-7-27,76.1,69.6,63.7,65.0,62.4,59.1,94,79,59,29.98,29.88,6,1,6,0.00
2013-7-28,72.7,67.4,62.5,64.9,62.2,58.6,89,83,74,29.98,29.90,3,0,3,0.00
2013-7-29,83.2,73.3,65.7,75.3,68.3,62.4,91,85,75,30.00,29.91,5,1,5,0.21
2013-7-30,81.4,73.9,69.5,77.1,71.5,67.3,95,92,85,29.98,29.89,6,1,6,3.07
2013-7-31,84.6,77.0,70.9,76.8,72.3,67.1,95,86,70,29.98,29.91,6,1,6,0.00
2013-8-1,86.8,75.9,64.8,71.7,67.0,62.2,93,75,56,30.02,29.90,6,1,6,0.00
2013-8-2,87.1,76.6,70.2,78.5,70.6,64.8,87,82,73,29.91,29.79,7,1,7,0.01
2013-8-3,86.0,76.6,68.6,76.4,71.9,66.5,94,86,68,30.01,29.78,8,1,8,1.32
2013-8-4,75.4,72.2,69.8,72.0,70.1,68.3,95,93,89,30.07,29.94,4,1,7,1.22
2013-8-5,85.5,75.8,70.4,81.0,73.3,68.9,95,92,83,29.96,29.75,8,1,8,0.21
2013-8-6,80.5,74.8,70.7,77.0,72.4,68.8,95,92,87,29.86,29.74,9,1,9,0.47
2013-8-7,81.9,75.4,70.6,77.0,72.9,68.8,96,92,81,29.88,29.73,9,1,9,0.34
2013-8-8,81.7,75.4,70.0,75.4,72.2,68.5,96,90,77,29.90,29.77,5,1,5,0.56
2013-8-9,79.7,75.1,71.8,73.8,71.1,68.0,94,88,77,29.96,29.84,6,1,6,0.04
2013-8-10,82.1,74.7,68.2,70.8,67.9,65.4,92,80,62,30.05,29.96,6,1,6,0.00
2013-8-11,84.2,76.0,69.1,76.1,70.6,65.6,90,84,76,30.03,29.93,5,1,5,0.00
2013-8-12,80.5,74.3,70.6,74.7,71.0,67.8,94,90,78,29.97,29.87,4,1,10,0.78
2013-8-13,81.5,73.6,67.7,71.1,67.1,62.2,94,81,62,29.99,29.90,8,1,8,0.00
2013-8-14,76.7,69.3,62.6,62.8,59.3,55.4,89,72,53,30.08,29.98,7,1,7,0.00
2013-8-15,75.1,63.4,55.6,59.3,55.0,50.8,87,75,55,30.04,29.94,4,1,4,0.00
2013-8-16,74.3,66.4,59.9,62.8,57.7,54.6,84,74,61,30.04,29.96,5,1,5,0.00
2013-8-17,78.8,67.7,56.5,64.2,59.3,53.0,90,75,58,30.06,29.97,5,1,5,0.00
2013-8-18,81.7,71.6,61.2,67.2,62.8,57.3,90,75,58,30.06,29.97,6,1,6,0.00
2013-8-19,84.1,73.4,62.5,70.4,64.3,59.2,91,75,52,30.04,29.93,5,1,5,0.00
2013-8-20,85.7,75.0,64.1,72.4,65.8,60.5,90,74,55,30.01,29.94,5,1,5,0.00
2013-8-21,87.5,76.6,65.0,74.0,67.4,61.0,89,74,57,30.04,29.95,6,1,6,0.00
2013-8-22,89.5,76.6,67.9,75.0,68.5,64.4,90,77,54,30.04,29.93,5,0,5,0.00
2013-8-23,89.8,79.1,67.9,76.0,70.1,64.4,89,75,54,30.01,29.93,4,1,4,0.01
2013-8-24,89.6,79.7,71.1,76.8,70.7,67.2,89,75,58,30.09,29.97,5,2,5,0.00
2013-8-25,90.2,79.3,69.1,76.2,69.9,65.5,90,74,53,30.14,30.05,5,1,5,0.00
2013-8-26,89.6,80.0,71.1,76.3,71.6,67.5,91,76,57,30.13,30.01,6,1,6,0.00
2013-8-27,89.3,79.3,69.5,72.6,69.1,65.7,88,72,52,30.04,29.94,6,1,6,0.00
2013-8-28,90.4,79.1,68.6,74.3,69.9,64.9,89,75,54,30.00,29.93,5,1,5,0.00
2013-8-29,91.8,81.0,70.2,76.5,72.3,66.6,90,76,57,30.00,29.90,4,0,4,0.00
2013-8-30,93.2,83.0,73.8,76.6,72.8,70.4,90,73,53,29.93,29.80,5,1,5,0.00
2013-8-31,95.0,83.3,73.1,75.0,72.2,69.3,88,71,49,29.83,29.72,8,1,8,0.00
2013-9-1,85.3,77.8,73.4,72.9,70.6,67.3,87,79,65,29.85,29.72,9,1,9,0.05
2013-9-2,83.7,75.3,67.1,69.4,65.3,60.1,89,73,53,29.91,29.81,6,1,6,0.00
2013-9-3,85.0,72.6,60.1,67.5,60.8,56.1,89,69,46,29.99,29.90,5,1,5,0.00
2013-9-4,86.4,73.2,59.0,66.7,60.5,54.2,87,66,46,30.07,29.96,6,1,6,0.00
2013-9-5,86.8,73.8,61.2,67.7,61.4,56.5,86,67,43,30.11,30.01,5,1,5,0.00
2013-9-6,86.8,74.4,62.8,69.6,62.5,57.5,86,68,42,30.07,29.93,6,1,6,0.00
2013-9-7,91.8,77.8,64.4,72.7,66.0,59.7,88,69,47,29.97,29.86,5,1,6,0.00
2013-9-8,92.2,78.6,69.1,77.4,69.4,63.7,84,74,55,29.90,29.80,5,0,5,0.00
2013-9-9,94.7,81.6,70.2,72.6,68.2,65.4,88,66,41,29.92,29.84,6,1,6,0.00
2013-9-10,92.9,80.4,69.7,71.3,65.9,63.6,83,63,39,30.03,29.91,7,1,7,0.00
2013-9-11,92.2,79.8,68.0,72.8,67.5,62.4,84,68,48,30.06,29.96,6,1,6,0.00
2013-9-12,88.2,77.9,69.7,73.0,68.0,63.6,88,72,57,30.00,29.92,7,1,7,0.00
2013-9-13,77.0,69.0,59.6,64.1,53.8,50.0,80,59,45,30.03,29.93,7,1,7,0.00
2013-9-14,78.8,65.9,56.2,55.9,52.1,48.3,75,62,42,29.96,29.90,5,1,5,0.00
2013-9-15,87.5,71.8,58.0,67.2,58.5,49.7,75,64,48,29.97,29.90,6,1,6,0.00
2013-9-16,74.0,69.4,66.2,68.9,64.3,60.3,90,84,70,30.10,29.96,4,1,4,0.22
2013-9-17,77.6,70.1,62.8,70.9,65.5,60.7,94,86,75,30.07,29.92,5,1,5,1.71
2013-9-18,82.4,72.9,68.2,72.6,68.6,64.5,91,86,68,29.94,29.85,6,1,6,0.23
2013-9-19,88.6,76.7,70.2,73.4,69.2,66.2,91,79,55,29.91,29.78,10,2,10,0.00
2013-9-20,73.3,65.7,56.9,68.0,61.9,52.6,94,88,73,29.89,29.83,7,1,7,0.99
2013-9-21,72.4,60.8,50.4,55.3,51.2,47.4,92,73,47,29.92,29.82,9,1,9,0.01
2013-9-22,75.2,61.7,47.2,57.2,51.2,43.6,89,70,49,29.90,29.79,6,1,6,0.00
2013-9-23,76.9,64.3,51.7,59.9,54.0,47.4,86,71,51,29.85,29.73,7,1,7,0.00
2013-9-24,76.7,66.8,58.7,61.1,57.8,53.8,87,74,56,29.81,29.73,7,1,7,0.00
2013-9-25,77.8,66.0,55.6,64.9,58.6,51.9,90,78,59,29.79,29.73,4,0,4,0.00
2013-9-26,81.7,69.7,58.7,66.6,61.0,54.8,90,75,57,29.88,29.76,4,1,4,0.00
2013-9-27,83.5,73.2,63.5,69.2,63.8,60.1,90,74,53,29.94,29.83,6,1,6,0.00
2013-9-28,74.5,66.4,61.2,68.0,63.3,59.2,93,90,77,29.95,29.82,6,1,6,0.46
2013-9-29,72.9,63.0,55.3,59.2,55.7,52.9,93,79,52,29.97,29.85,6,1,7,0.02
2013-9-30,77.9,66.8,56.9,68.2,62.1,53.0,93,85,69,29.86,29.76,5,1,5,0.00
2013-10-1,82.6,71.8,64.4,71.8,65.5,61.8,94,81,58,29.91,29.80,6,1,6,0.00
2013-10-2,81.0,70.9,65.5,73.5,66.6,62.2,93,87,71,29.94,29.83,5,1,5,0.00
2013-10-3,84.4,73.7,65.9,72.7,67.4,63.2,93,82,61,29.86,29.75,7,1,7,0.00
2013-10-4,84.4,74.7,67.7,73.2,67.9,63.5,92,80,65,29.84,29.76,7,1,7,0.00
2013-10-5,72.0,58.0,48.2,67.9,55.2,46.2,93,91,82,29.91,29.80,6,1,6,1.69
2013-10-6,58.5,51.4,43.2,47.3,44.2,40.5,93,77,59,29.89,29.80,9,2,9,0.01
2013-10-7,69.1,56.3,45.4,52.0,47.0,41.8,88,72,49,30.03,29.88,6,1,6,0.00
2013-10-8,71.5,58.6,47.0,55.9,49.9,43.2,88,74,54,30.05,29.96,6,1,6,0.00
2013-10-9,73.4,60.0,47.2,56.5,49.9,42.9,86,71,48,30.03,29.94,5,1,5,0.00
2013-10-10,74.9,62.5,51.8,61.0,54.0,47.7,89,75,54,30.01,29.84,5,1,5,0.00
2013-10-11,78.3,66.5,56.7,67.0,60.2,53.5,91,81,66,29.86,29.76,7,1,7,0.00
2013-10-12,69.3,62.1,53.1,61.2,56.7,48.8,93,83,64,30.08,29.80,8,1,8,0.48
2013-10-13,69.5,60.3,52.7,51.4,47.6,43.3,87,64,48,30.24,30.08,7,1,7,0.03
2013-10-14,64.8,59.6,54.5,59.6,51.8,44.7,90,76,65,30.16,29.87,6,1,6,0.02
2013-10-15,62.8,58.5,51.1,60.0,55.3,47.4,93,89,78,29.94,29.78,6,1,6,0.43
2013-10-16,57.6,50.5,42.3,47.4,43.9,38.9,89,78,64,29.99,29.88,7,1,7,0.00
2013-10-17,62.3,52.8,45.7,46.6,44.5,41.9,89,74,54,29.93,29.85,5,1,5,0.00
2013-10-18,58.5,47.9,42.1,48.6,42.4,38.2,90,81,68,29.96,29.88,8,1,8,0.19
2013-10-19,58.3,45.1,36.5,42.8,37.8,33.8,92,77,50,29.98,29.88,8,2,8,0.02
2013-10-20,68.2,52.9,40.9,46.3,41.0,36.7,86,67,38,29.89,29.77,9,1,9,0.00
2013-10-21,56.2,48.6,40.5,44.6,40.7,35.4,85,75,57,29.98,29.83,7,1,7,0.00
2013-10-22,65.7,49.7,37.8,47.6,39.7,33.4,88,70,45,29.96,29.78,10,2,10,0.00
2013-10-23,57.4,45.1,35.3,42.4,36.5,30.9,86,72,55,30.06,29.90,5,1,5,0.00
2013-10-24,50.8,43.7,37.4,37.5,33.0,28.0,86,67,44,30.29,29.97,12,2,12,0.00
2013-10-25,55.8,36.7,31.1,34.1,27.8,25.4,82,71,43,30.35,30.09,3,0,3,0.00
2013-10-26,63.7,50.6,40.1,52.4,42.2,31.0,81,73,64,30.08,29.95,4,1,4,0.00
2013-10-27,65.2,49.1,35.1,43.8,37.8,30.6,84,67,41,30.00,29.87,4,0,4,0.00
2013-10-28,67.0,53.8,41.8,54.8,47.7,37.5,92,81,64,30.06,29.91,4,1,4,0.00
2013-10-29,63.5,58.6,53.1,61.8,56.6,49.3,94,93,87,30.04,29.88,5,1,5,1.70
2013-10-30,65.9,63.5,61.4,64.1,61.8,59.7,94,94,93,29.93,29.74,6,1,6,0.63
2013-10-31,68.6,60.2,50.2,63.3,57.9,47.4,95,92,81,29.70,29.35,8,2,8,0.40
2013-11-1,49.3,48.3,47.5,46.8,42.4,41.7,91,80,77,29.85,29.61,2,0,2,0.01
2013-11-2,43.2,40.6,38.5,36.1,34.7,33.5,82,79,75,30.08,30.06,0,0,0,0.00
2013-11-3,59.2,46.8,33.8,43.6,37.6,30.2,91,72,52,30.10,29.91,8,1,8,0.00
2013-11-4,60.5,52.7,48.2,50.1,45.2,40.3,89,76,67,30.05,29.90,8,2,8,0.00
2013-11-5,58.7,55.5,52.2,56.7,53.4,49.2,95,93,88,30.04,29.83,7,2,7,0.47
2013-11-6,59.2,45.4,38.7,57.5,42.3,34.1,94,89,81,30.20,29.78,11,2,11,0.46
2013-11-7,59.2,43.7,32.4,41.8,35.1,29.9,92,74,46,30.28,30.19,7,1,7,0.00
2013-11-8,65.0,48.7,34.4,45.0,36.8,30.5,89,66,38,30.22,29.93,8,1,8,0.00
2013-11-9,65.9,52.7,43.0,46.6,40.7,36.5,80,65,43,30.14,29.95,7,1,8,0.00
2013-11-10,65.0,51.2,40.7,41.0,37.8,35.6,84,62,38,30.26,30.14,5,1,5,0.00
2013-11-11,61.9,51.3,37.8,51.8,43.5,34.0,88,75,63,30.31,30.04,14,2,14,0.00
2013-11-12,37.8,30.7,24.3,33.8,19.6,15.0,87,64,44,30.60,30.31,14,4,14,0.00
2013-11-13,51.7,34.7,20.5,23.6,18.6,13.9,79,54,28,30.53,30.15,7,1,7,0.00
2013-11-14,55.4,42.8,29.0,28.5,22.9,17.7,66,47,27,30.15,29.90,7,1,7,0.00
2013-11-15,58.7,49.0,42.8,47.8,40.4,28.1,88,72,51,29.92,29.74,8,1,8,0.00
2013-11-16,71.1,61.5,51.1,62.1,55.6,47.4,91,82,64,29.75,29.49,9,3,9,0.03
2013-11-17,72.9,65.0,48.6,63.7,45.6,24.4,84,53,27,29.94,29.40,17,4,17,0.00
2013-11-18,59.8,47.6,38.3,40.1,31.4,26.7,80,55,31,30.15,29.93,9,1,9,0.00
2013-11-19,58.3,47.2,37.4,34.7,29.5,24.9,70,52,34,30.14,29.96,8,2,8,0.00
2013-11-20,59.4,48.7,39.2,35.2,31.8,25.5,76,53,38,29.96,29.79,8,2,8,0.02
2013-11-21,53.5,49.9,41.8,48.6,44.1,34.0,93,82,48,30.13,29.86,7,1,7,0.82
2013-11-22,41.2,31.9,29.9,38.8,29.6,27.0,93,91,88,30.37,30.12,14,4,14,0.00
2013-11-23,38.2,29.8,19.1,28.2,20.5,11.2,89,69,51,30.53,30.36,13,4,13,0.00
2013-11-24,29.9,23.2,15.5,14.5,11.3,8.9,78,61,44,30.53,30.21,6,1,6,0.00
2013-11-25,35.8,31.8,28.6,29.1,22.9,13.9,81,70,54,30.21,30.02,6,1,6,0.01
2013-11-26,43.0,33.4,23.6,31.6,25.3,14.1,86,72,57,30.17,29.97,17,4,17,0.00
2013-11-27,34.9,25.0,17.6,15.8,13.1,10.4,75,61,44,30.25,30.12,10,2,10,0.00
2013-11-28,51.1,35.4,24.1,30.5,22.7,13.9,75,61,43,30.30,30.11,12,1,12,0.00
2013-11-29,54.7,39.0,26.5,33.3,27.7,20.5,82,65,43,30.36,30.17,6,0,6,0.00
2013-11-30,61.7,45.8,33.7,44.6,36.0,27.4,84,69,53,30.18,29.97,13,1,13,0.00
2013-12-1,55.1,46.0,37.1,48.7,42.3,33.5,92,87,78,30.01,29.77,4,0,4,0.00
2013-12-2,59.0,49.0,40.5,50.0,44.7,37.5,94,85,69,29.77,29.56,7,0,7,0.00
2013-12-3,62.3,50.1,37.8,53.7,46.5,35.1,94,88,71,29.57,29.45,6,1,6,0.00
2013-12-4,63.0,48.5,31.0,52.8,43.9,26.9,94,85,58,29.82,29.45,11,2,11,0.00
2013-12-5,30.6,23.4,18.7,26.9,18.4,15.1,88,81,72,30.15,29.81,11,4,11,0.00
2013-12-6,20.0,17.6,11.9,15.3,12.4,4.2,88,80,68,30.40,30.09,11,4,12,0.00
2013-12-7,22.9,14.9,6.3,13.1,6.6,0.6,82,70,52,30.47,30.16,7,2,7,0.00
2013-12-8,28.1,23.2,18.4,26.1,18.9,8.7,93,84,64,30.17,29.85,8,1,8,0.00
2013-12-9,27.4,22.1,18.0,24.9,17.6,14.4,91,83,69,30.18,30.00,9,2,9,0.00
2013-12-10,34.9,21.5,6.8,20.5,12.9,3.2,88,70,51,30.24,30.10,6,1,6,0.11
2013-12-11,34.2,22.4,12.1,24.4,14.7,7.0,88,73,54,30.45,30.13,10,2,10,0.02
2013-12-12,42.5,26.5,11.2,23.9,15.2,4.7,81,64,44,30.45,30.11,6,1,6,0.06
2013-12-13,34.2,31.6,26.3,31.6,27.5,17.3,93,85,62,30.11,29.73,6,1,6,0.09
2013-12-14,33.5,30.3,26.3,31.6,27.9,22.8,93,90,86,30.06,29.70,10,3,13,0.08
2013-12-15,46.1,32.2,19.3,35.5,26.6,16.7,90,80,61,30.08,29.93,8,1,8,0.27
2013-12-16,60.7,46.3,35.5,39.3,33.9,29.3,80,63,41,30.00,29.88,8,2,8,0.00
2013-12-17,51.5,37.4,27.5,36.4,29.0,23.5,89,73,47,30.16,29.97,12,1,12,0.00
2013-12-18,62.6,44.1,27.4,39.6,32.2,22.5,86,65,39,30.14,29.80,9,2,9,0.00
2013-12-19,58.1,53.2,44.8,51.1,46.5,37.4,87,78,71,29.80,29.61,6,2,8,0.00
2013-12-20,59.9,43.0,30.8,56.1,40.2,28.7,92,90,80,29.75,29.59,9,2,9,0.01
2013-12-21,35.1,32.7,30.6,33.5,30.9,28.6,94,93,92,29.69,29.38,8,0,8,0.34
2013-12-22,35.1,28.8,23.9,33.5,26.1,20.8,94,89,85,30.18,29.54,10,3,10,0.00
2013-12-23,25.6,20.6,16.2,21.1,16.3,12.7,88,84,72,30.40,30.18,9,2,9,0.00
2013-12-24,33.7,23.0,11.3,23.1,16.3,7.7,89,76,63,30.40,30.10,8,2,8,0.00
2013-12-25,38.5,31.1,27.2,32.6,26.3,21.2,91,83,76,30.22,30.13,7,1,7,0.00
2013-12-26,49.3,33.8,21.6,33.9,26.1,19.4,92,75,47,30.23,30.12,9,1,9,0.00
2013-12-27,57.6,39.9,26.8,36.2,29.2,23.2,89,68,40,30.24,30.14,7,1,7,0.00
2013-12-28,54.7,40.7,30.2,36.8,30.0,24.2,82,67,41,30.14,29.80,7,1,7,0.00
2013-12-29,43.2,28.6,18.5,36.5,22.1,11.9,85,76,68,30.12,29.79,12,4,12,0.00
2013-12-30,37.4,23.2,11.3,20.0,12.7,5.7,78,65,44,30.16,30.04,6,1,6,0.00
2013-12-31,55.1,37.5,21.1,30.3,22.4,13.9,78,57,35,30.21,30.01,8,1,8,0.00
2014-1-1,50.0,35.8,20.3,32.3,26.2,16.6,88,69,47,30.01,29.76,13,2,13,0.00
2014-1-2,20.5,13.5,7.9,16.2,6.9,1.6,86,75,58,30.29,29.97,13,3,13,0.00